Location: Beranovka
(49.9415°N, 12.8435°E)
Time: 22:30:47
(UTC+00:00)

Daily predictions for brighter satellites

Satellite Brightness Start Highest point End
(mag) Time Altitude Azimuth Time Altitude Azimuth Time Altitude Azimuth
BREEZE M DEB (TANK) 4.0 18:42:49 10° WSW 18:47:04 72° SSE 19:04:18 10° ENE
Cosmos 407 Rocket 4.0 19:05:26 10° S 19:10:23 40° ESE 19:15:19 10° NE
Cosmos 1441 Rocket 3.4 19:07:02 10° S 19:10:40 47° E 19:14:18 10° NNE
Cosmos 1500 Rocket 3.8 19:07:02 10° SSW 19:11:20 73° WNW 19:15:41 10° N
Cosmos 2360 4.3 19:12:11 10° NNW 19:17:56 69° ENE 19:23:39 10° SE
Cosmos 2123 Rocket 4.4 19:12:18 10° N 19:18:18 46° ENE 19:24:16 10° SE
BREEZE-M DEB (TANK) 4.1 19:14:08 10° WNW 19:19:35 25° SW 19:22:18 10° S
Cosmos 1666 Rocket 4.1 19:19:25 10° SSE 19:23:26 38° E 19:27:28 10° NNE
Resurs 1-3 3.7 19:20:21 10° SSE 19:24:44 81° WSW 19:29:10 10° NNW
Meteor 1-4 Rocket 3.1 19:21:41 10° N 19:25:00 39° ENE 19:28:15 10° SE
CZ-2C R/B 3.7 19:20:29 10° NNE 19:25:06 63° ESE 19:29:35 10° S
SL-16 R/B 3.6 19:24:22 10° NNW 19:29:07 26° NE 19:33:49 10° E
Cosmos 1140 Rocket 3.8 19:25:32 10° S 19:30:31 46° ESE 19:35:32 10° NNE
CENTAUR R/B 3.9 19:28:37 10° SE 19:32:12 16° ESE 19:36:07 10° ENE
COSMOS 2406 3.3 19:26:33 10° SSW 19:32:19 88° ESE 19:38:05 10° NNE
Cosmos 1805 Rocket 3.7 19:30:21 10° S 19:34:48 84° W 19:39:18 10° N
H-2A R/B 4.5 19:32:06 10° SW 19:35:56 21° W 19:39:44 10° NW
Cosmos 2369 3.9 19:30:50 10° NNW 19:36:36 80° WSW 19:42:19 10° SSE
Cosmos 2082 Rocket 2.4 19:35:54 10° S 19:41:19 48° ESE 19:46:46 10° NE
SPOT 1/Viking Rocket 4.0 19:37:42 11° SE 19:42:22 46° ENE 19:47:21 10° N
Cosmos 2278 3.7 19:39:18 10° NNW 19:45:03 84° ENE 19:50:18 12° SSE
CZ-2C R/B 3.3 19:40:50 10° N 19:45:55 58° WNW 19:51:01 10° SSW
Intercosmos 25 3.8 19:41:59 10° NNW 19:46:25 58° W 19:49:41 10° S
Cosmos 389 Rocket 4.2 19:46:06 10° NNW 19:49:11 31° W 19:52:17 10° SSW
MetOp-B 4.1 19:44:11 10° SSE 19:49:32 80° ENE 19:54:56 10° NNW
FALCON 9 DEB 3.5 19:46:41 10° SW 19:50:00 41° SSE 19:53:20 10° ENE
Cosmos 2322 Rocket 3.5 19:45:15 10° NNW 19:50:13 29° NE 19:54:49 11° ESE
USA 32 4.4 19:46:55 10° SSE 19:51:52 45° E 19:56:49 10° NNE
Cosmos 1633 Rocket 3.0 19:50:28 10° S 19:54:50 67° E 19:59:15 10° NNE
Okean 1-7 4.4 19:51:28 10° NNE 19:55:00 24° ENE 19:57:20 16° ESE
OBJECT-B 2.9 19:54:39 10° SSW 19:57:29 26° W 20:00:20 10° NW
Lacrosse 5 2.2 19:52:42 10° NW 19:57:45 60° NNE 20:02:05 14° ESE
IGS 5A 3.4 19:54:58 14° SSE 19:58:25 71° ENE 20:02:34 10° N
Cosmos 614 Rocket 4.4 19:53:24 10° SW 19:58:33 66° WNW 20:03:45 10° NNE
Cosmos 2360 Rocket 3.9 19:58:18 10° NNW 20:02:47 23° NE 20:07:15 10° E
NOSS 3-2 (A) 3.7 19:57:50 10° S 20:03:10 42° ESE 20:09:12 10° NE
Cosmos 1867 3.6 19:59:00 10° SSW 20:04:17 56° ESE 20:09:39 10° NE
USA 267 3.3 19:58:13 10° ENE 20:04:41 59° SE 20:11:07 10° SW
Cosmos 1707 Rocket 4.3 20:01:09 10° NNW 20:05:23 51° W 20:09:34 10° S
Meteor 1-20 Rocket 4.5 20:01:39 10° S 20:07:17 54° E 20:12:58 10° NNE
Cosmos 676 Rocket 4.1 20:02:06 10° S 20:07:19 60° ESE 20:12:36 10° NNE
BREEZE-M DEB (TANK) 1.4 20:07:23 10° W 20:10:01 77° S 20:10:42 34° ESE
NOSS 3-2 (C) 4.1 20:05:41 10° S 20:10:36 31° ESE 20:16:05 10° NE
Terra 2.7 20:08:56 19° ESE 20:11:46 36° ENE 20:16:07 10° N
Cosmos 1980 Rocket 2.4 20:06:27 10° NNW 20:12:08 71° WSW 20:16:37 16° SSE
ATLAS 5 CENTAUR R/B 4.3 20:09:18 10° WNW 20:13:44 22° WSW 20:18:34 10° SSW
Genesis I 3.7 20:11:13 10° NW 20:14:59 50° SW 20:17:19 21° SSE
Cosmos 1437 Rocket 3.6 20:12:07 10° N 20:15:38 34° ENE 20:17:12 24° ESE
Cosmos 1238 Rocket 2.4 20:14:51 30° SE 20:15:52 44° E 20:18:42 10° NNE
Okean 1 3.6 20:15:14 10° N 20:19:13 54° ENE 20:21:16 26° SE
Cosmos 921 Rocket 2.9 20:15:05 10° NNW 20:19:20 85° ENE 20:21:49 24° SSE
ERS-1 Rocket 3.1 20:16:09 21° SE 20:19:30 63° ENE 20:24:29 10° N
Cosmos 1470 Rocket 3.5 20:15:47 14° S 20:19:34 68° E 20:23:56 10° NNE
Resurs 01 Rocket 3.0 20:15:46 10° SSW 20:19:49 35° W 20:23:55 10° NNW
deb Kosmos-1763 4.0 20:16:15 10° SSW 20:19:53 83° WNW 20:23:33 10° NNE
Cosmos 1184 Rocket 2.8 20:20:52 14° SSW 20:23:39 82° WNW 20:26:59 10° N
Cosmos 405 Rocket 2.8 20:22:43 27° SSE 20:24:25 49° E 20:28:03 10° NNE
USA 276 2.0 20:21:37 10° W 20:24:48 87° N 20:26:23 27° E
Meteor 1-19 Rocket 4.2 20:19:54 10° N 20:25:17 61° ENE 20:28:36 23° SSE
Cosmos 468 Rocket 4.1 20:21:02 10° NNW 20:26:22 69° ENE 20:29:30 25° SE
Cosmos 1934 Rocket 4.2 20:20:03 10° SSW 20:26:24 75° W 20:32:49 10° N
Cosmos 1697 Rocket 4.1 20:21:40 10° NW 20:26:35 32° WSW 20:31:28 10° SSW
Cosmos 1833 Rocket 3.5 20:22:12 10° SW 20:27:42 54° NW 20:33:16 10° NNE
Cosmos 2333 Rocket 4.2 20:25:31 10° N 20:29:35 19° NE 20:33:37 10° E
Cosmos 1862 Rocket 4.2 20:27:55 10° NNW 20:32:18 55° W 20:35:47 15° S
GP-B 3.4 20:28:32 10° N 20:32:57 66° W 20:36:51 13° SSW
X-37B 1.4 20:31:31 10° WSW 20:34:10 32° S 20:34:10 32° S
H-2A R/B 4.1 20:31:33 10° N 20:35:35 55° WNW 20:39:37 10° SSW
SPOT 5 2.6 20:33:39 28° SSE 20:35:52 74° ENE 20:40:15 10° N
SL-4 R/B 1.6 20:32:25 10° WSW 20:36:20 83° SSE 20:39:36 13° ENE
Cosmos 1954 Rocket 4.1 20:33:52 10° SSW 20:39:12 81° WNW 20:44:34 10° NNE
Cosmos 1741 Rocket 4.4 20:36:36 25° SSE 20:39:13 43° ESE 20:44:13 10° NE
Spot 2 Rocket 4.2 20:37:06 15° S 20:41:14 51° W 20:46:14 10° NNW
USA 234 3.3 20:37:03 23° SE 20:41:20 73° SW 20:47:53 10° WNW
Meteor 1-14 Rocket 4.4 20:37:36 22° SSE 20:41:24 59° E 20:47:14 10° NNE
FAST 4.2 20:39:48 10° N 20:42:33 74° E 20:42:48 65° SE
Cosmos 1515 3.6 20:40:43 10° N 20:44:33 71° ENE 20:45:49 40° SSE
ATLAS 3B R/B 3.6 20:48:21 23° ESE 20:48:46 23° ESE 20:53:45 10° ENE
SAR-Lupe-2 3.4 20:46:47 10° NNE 20:50:22 74° ESE 20:51:31 41° S
Cosmos 44 3.5 20:49:33 10° NW 20:54:23 64° NE 20:56:43 31° ESE
Meteor 2-4 Rocket 3.8 20:48:46 10° N 20:54:26 66° ENE 20:57:01 32° SSE
CARTOSAT-1 3.9 20:53:39 28° S 20:55:49 61° WSW 21:00:07 10° NNW
Meteor 1-18 Rocket 4.3 20:50:34 10° NNW 20:56:09 72° W 20:59:26 25° S
Iridium 4 Rocket 3.6 20:55:21 35° ESE 20:56:15 40° E 21:00:11 10° NNE
USA 238 DEB 3.6 20:53:36 10° SW 21:00:16 86° SE 21:07:15 10° NE
USA 238 3.6 20:53:43 10° SW 21:00:22 85° SE 21:07:22 10° NE
Cosmos 1933 Rocket 3.8 20:57:38 20° SSW 21:00:37 67° WNW 21:05:05 10° N
Cosmos 1763 Rocket 3.7 21:03:57 10° NNW 21:09:14 65° WSW 21:11:34 33° S
Cosmos 1869 Rocket 3.5 21:10:00 45° SSE 21:11:11 66° E 21:15:37 10° NNE
Cosmos 1242 Rocket 4.2 21:09:11 10° NNE 21:12:07 23° ENE 21:12:17 23° ENE
SL-16 R/B 2.2 21:08:08 10° NNW 21:13:49 75° WSW 21:16:10 37° SSE
Lacrosse 4 Rocket 3.9 21:17:36 10° ENE 21:17:36 10° ENE 21:17:44 10° ENE
Cosmos 2100 Rocket 3.9 21:12:39 31° S 21:15:46 74° E 21:21:55 10° NNE
Cosmos 1703 Rocket 4.2 21:16:08 10° NNW 21:20:20 48° W 21:21:59 31° SSW
Cosmos 2219 Rocket 3.6 21:15:41 10° NNW 21:20:42 30° NE 21:23:54 18° E
CENTAUR R/B 2.4 21:15:29 10° SSW 21:21:28 76° SE 21:28:38 10° NE
Cosmos 2082 Rocket 3.7 21:20:20 10° WSW 21:25:34 37° NW 21:30:49 10° NNE
FALCON 9 DEB 3.6 21:23:30 10° W 21:26:59 62° NNW 21:28:47 26° ENE
Cosmos 2173 Rocket 3.9 21:25:03 32° S 21:28:04 84° E 21:34:14 10° N
Okean 3 3.4 21:24:31 10° N 21:28:49 82° ENE 21:29:33 61° SSE
Okean 1-7 4.0 21:28:41 10° NNW 21:32:44 40° W 21:34:11 30° SW
ALOS 2 3.9 21:32:14 25° E 21:33:08 28° ENE 21:36:51 10° N
Cosmos 2237 4.2 21:28:35 10° NNW 21:34:21 83° ENE 21:36:15 44° SE
Cosmos 2322 Rocket 2.4 21:29:04 10° NNW 21:34:43 64° WSW 21:36:38 41° S
Cosmos 1725 Rocket 4.2 21:33:23 39° SSE 21:35:28 57° E 21:41:40 10° NNE
SL-27 R/B 2.6 21:38:44 63° WNW 21:38:44 63° WNW 21:41:59 10° NNE
SL-08 R/B 4.5 21:38:12 42° SSE 21:40:07 62° E 21:46:08 10° NNE
Lacrosse 5 2.4 21:35:51 10° WNW 21:40:38 42° SW 21:41:14 40° SSW
Cosmos 1733 Rocket 3.3 21:46:13 51° E 21:46:16 51° E 21:50:34 10° NNE
Cosmos 2016 Rocket 4.0 21:44:23 40° S 21:46:52 80° E 21:53:17 10° NNE
Cosmos 1459 Rocket 4.1 21:43:59 30° SSW 21:47:17 75° W 21:53:41 10° N
Cosmos 2360 Rocket 2.1 21:41:50 10° NNW 21:47:34 88° WSW 21:49:10 50° SSE
USA 267 3.6 21:41:19 10° ENE 21:47:47 65° NNW 21:54:14 10° W
Terra 3.1 21:47:50 26° SW 21:49:32 33° W 21:53:51 10° NNW
Cosmos 1500 3.9 21:51:07 41° WSW 21:51:43 45° WNW 21:55:20 10° N
Cosmos 2221 Rocket 3.6 21:47:52 10° NNW 21:52:20 73° W 21:52:58 61° SSW
Thor Agena Rocket 3.7 21:47:44 10° NNE 21:52:43 52° E 21:53:15 49° ESE
NOSS 3-2 (A) 4.2 21:48:07 10° WSW 21:53:53 53° NW 22:00:36 10° NE
COSMOS 2428 3.5 21:50:22 10° NNW 21:55:51 44° NE 21:58:12 30° ESE
Cosmos 540 Rocket 3.9 21:51:39 10° NNW 21:56:40 50° WSW 21:57:48 42° SW
Cosmos 2061 Rocket 3.9 21:54:51 41° S 21:57:15 88° W 22:03:30 10° N
ATLAS 5 CENTAUR R/B 2.3 21:55:20 10° NW 21:58:14 66° SW 21:58:55 57° S
Meteor 1-11 Rocket 3.6 21:58:35 48° S 22:00:16 88° E 22:06:05 10° NNE
Cosmos 1864 Rocket 4.4 21:58:17 44° S 22:00:24 84° E 22:06:42 10° N
NOSS 3-2 (C) 3.8 21:55:08 10° SW 22:00:57 66° NW 22:07:45 10° NE
Cosmos 841 Rocket 4.2 21:58:05 10° NW 22:03:01 43° WSW 22:04:10 38° SW
Cosmos 1666 2.8 22:03:21 71° NW 22:03:21 71° NW 22:06:52 10° N
BREEZE-M DEB (TANK) 3.7 22:00:44 10° W 22:04:49 78° SSW 22:20:50 10° ESE
Cosmos 1743 3.8 22:10:20 35° ENE 22:10:20 35° ENE 22:13:14 10° NNE
Cosmos 1802 Rocket 4.4 22:08:28 31° SW 22:11:35 62° WNW 22:17:54 10° N
Cosmos 2237 Rocket 3.8 22:09:02 10° NNW 22:13:55 29° NE 22:17:20 16° E
Cosmos 2084 Rocket 3.9 22:12:58 38° WSW 22:14:24 60° NW 22:18:42 10° NE
COSMOS 2487 3.8 22:16:14 33° NE 22:16:14 33° NE 22:18:19 10° NNE
Cosmos 2333 Rocket 2.4 22:09:12 10° NNW 22:14:59 68° ENE 22:16:34 47° ESE
Cosmos 1271 Rocket 3.2 22:11:19 10° N 22:14:36 51° NE 22:14:36 51° NE
Cosmos 1908 Rocket 4.3 22:15:54 39° E 22:15:54 39° E 22:19:38 10° NNE
SL-4 R/B 2.5 22:12:19 10° W 22:15:11 46° WNW 22:15:11 46° WNW
ERBS 4.0 22:13:44 10° NW 22:16:42 29° NNE 22:17:14 28° NE
Cosmos 2233 Rocket 4.0 22:18:13 50° S 22:19:56 77° E 22:26:17 10° NNE
Cosmos 1378 Rocket 3.4 22:18:38 10° N 22:23:08 87° E 22:23:11 86° ESE
USA 234 4.4 22:24:24 24° SW 22:25:06 24° SW 22:30:16 10° WNW
Cosmos 1536 3.3 22:25:43 53° WNW 22:25:44 53° WNW 22:29:38 10° N
Cosmos 1066 Rocket 4.3 22:20:30 10° NNW 22:26:10 65° W 22:27:21 52° SSW
Okean 2 4.1 22:23:55 10° N 22:27:42 44° ENE 22:27:42 44° ENE
Cosmos 1378 3.6 22:27:40 10° NNW 22:30:46 58° NNW 22:30:46 58° NNW
Helios 1A 3.8 22:31:45 40° ENE 22:31:55 40° ENE 22:35:53 10° N
MOS 1-B Rocket 4.3 22:32:11 10° N 22:37:44 54° WNW 22:40:00 33° SW
Cosmos 44 Rocket 3.5 22:33:09 10° NW 22:38:07 71° NE 22:38:57 59° ESE
ATLAS 3B R/B 2.5 22:35:32 34° SW 22:38:40 88° NW 22:45:23 10° NE
Cosmos 1975 Rocket 3.7 22:34:47 10° N 22:39:09 46° ENE 22:39:16 46° E
SL-24 DEB 4.4 22:36:13 10° N 22:40:58 60° E 22:41:04 60° E
Cosmos 1486 Rocket 3.8 22:40:49 72° SSE 22:41:18 80° ESE 22:46:32 10° NNE
Cosmos 1242 Rocket 4.2 22:43:49 10° NNW 22:46:17 27° WNW 22:46:17 27° WNW
Cosmos 1707 4.3 22:47:17 10° NNE 22:50:33 27° ENE 22:50:33 27° ENE
Lacrosse 4 Rocket 1.5 22:53:53 73° N 22:53:53 73° N 22:57:48 10° NNE
Cosmos 2227 Rocket 4.0 22:53:33 17° E 22:53:39 17° E 22:57:06 10° ENE
Cosmos 1975 3.4 22:54:57 51° NE 22:54:57 51° NE 22:58:16 10° NNE
Cosmos 1842 3.7 22:52:38 10° N 22:55:59 61° NNE 22:55:59 61° NNE
SL-16 R/B 4.3 22:54:24 10° WNW 22:56:55 13° W 22:58:01 13° WSW
YAOGAN 11 4.3 22:59:08 63° E 22:59:21 65° ENE 23:03:55 10° N
Cosmos 2344 4.5 22:50:52 10° NW 22:59:50 70° NE 23:12:18 10° SE
Nimbus 7 Rocket 4.4 22:55:57 10° NNE 23:01:50 75° WNW 23:03:21 51° SW
Sich 1 Rocket 4.3 23:02:16 42° E 23:02:16 42° E 23:06:06 10° NNE
Cosmos 2322 4.1 22:57:17 10° NW 23:02:40 46° WSW 23:03:02 45° WSW
Cosmos 1544 3.9 23:03:45 49° N 23:03:45 49° N 23:06:32 10° N
Cosmos 2219 Rocket 2.2 22:59:26 10° NW 23:05:03 62° WSW 23:05:35 59° SW
SL-16 R/B 4.3 23:04:00 10° ESE 23:08:53 25° NE 23:13:47 10° N
Meteor 1-21 4.2 23:03:27 10° NNW 23:09:19 87° ENE 23:10:19 63° SSE
ALOS 2 3.5 23:09:38 38° W 23:09:38 38° W 23:13:27 10° NNW
Cosmos 773 Rocket 4.1 23:04:54 10° NNW 23:10:02 64° ENE 23:10:52 55° ESE
CENTAUR R/B 4.0 23:06:46 10° W 23:12:49 40° NNW 23:19:53 10° NE
Cosmos 1025 Rocket 3.9 23:10:06 10° N 23:14:09 40° ENE 23:14:16 40° ENE
NOSS 0 Rocket 3.8 23:10:12 10° NNW 23:16:29 88° WSW 23:18:00 55° SSE
Cosmos 2322 Rocket 4.5 23:16:16 10° W 23:17:37 11° W 23:18:26 11° WSW
CZ-4 R/B 4.4 23:14:20 10° NNE 23:19:09 46° E 23:19:22 46° ESE
PSLV R/B 4.2 23:15:01 10° NNE 23:19:33 50° E 23:19:33 50° E
Cosmos 968 Rocket 3.7 23:18:42 52° WSW 23:19:36 61° WNW 23:24:42 10° NNE
SL-16 R/B 3.5 23:20:28 10° NNW 23:25:42 36° NE 23:29:54 15° ESE
USA 267 4.2 23:24:06 10° ENE 23:30:20 48° N 23:36:33 10° WNW
Cosmos 2360 Rocket 4.1 23:27:24 10° WNW 23:30:44 16° W 23:30:55 16° W
Helios 1B rocket 3.4 23:27:41 10° NNE 23:31:05 39° E 23:31:05 39° E
Cosmos 1354 Rocket 4.1 23:37:57 58° WSW 23:38:50 71° WNW 23:44:12 10° NNE
COSMOS 2428 3.4 23:34:49 10° NW 23:40:06 39° WSW 23:40:11 39° WSW
Cosmos 1536 Rocket 3.8 23:37:29 10° N 23:41:48 60° ENE 23:41:51 60° E
Timation 2 Rocket 3.8 23:42:46 58° S 23:43:56 73° ESE 23:49:58 10° NE
Cosmos 1782 Rocket 4.1 23:45:29 46° WNW 23:45:29 46° WNW 23:49:40 10° N
Meteor 2-9 Rocket 4.4 23:45:25 51° WSW 23:46:32 61° WNW 23:52:14 10° N
Cosmos 2297 Rocket 2.6 23:46:33 45° SE 23:47:12 47° ESE 23:52:37 10° NE
Cosmos 1980 3.6 23:43:46 10° NNW 23:49:26 72° WSW 23:50:13 63° SSW
Cosmos 2026 Rocket 4.2 23:47:13 10° N 23:53:17 63° ENE 23:55:25 40° SE
Cosmos 2219 3.2 23:53:03 55° SSE 23:53:49 61° ESE 23:59:21 10° NE
